Tracking 29967 objects as of 5-Dec-2024
HD Live streaming from Space Station
objects crossing your sky now

IRIDIUM 33 DEB

Track IRIDIUM 33 DEB now!
10-day predictions


NORAD ID: 46965
Int'l Code: 1997-051ABX
Perigee: 697.4 km
Apogee: 727.5 km
Inclination: 86.3 °
Period: 98.9 minutes
Semi major axis: 7083 km
RCS: Unknown
Launch date: September 14, 1997
Source: United States (US)
Launch site: TYURATAM MISSILE AND SPACE COMPLEX (TTMTR)

Note: This is SATELLITE DEBRIS
Your satellite tracking list
Your tracking list is empty




NASA's NSSDC Master Catalog

Two Line Element Set (TLE):
1 46965U 97051ABX 24338.24119263  .00009798  00000-0  22030-2 0  9992
2 46965  86.3365 146.2476 0021227 150.2671  23.6320 14.56251892568096
Source of the keplerian elements: AFSPC